RH
19 17 13 10 9 8 7 5 4 4 4 4 4 3 3 4 4 3 3 3 3 5 6 7 8 13 17 24 26 22 20 17 21 33 43 33 41 44 60 67 72 66 75 79 79
11 15 18 18 13 10 10 9 7 4 3 3 4 4 4 5 5 4 6 4 4 3 6 7 7 9 20 27 27 23 19 17 20 35 57 26 42 46 48 60 50 69 72 83 84
6 8 11 14 18 17 13 10 10 8 5 3 3 4 4 6 7 7 6 6 4 3 4 6 7 8 26 29 29 25 19 20 30 45 52 29 58 52 75 76 69 62 60 70 79
5 5 6 7 10 14 18 16 11 10 9 5 3 4 4 7 9 8 7 8 7 4 4 5 6 8 23 27 30 27 23 24 34 16 31 37 54 48 94 81 57 59 60 69 69
7 7 6 5 5 6 10 16 18 12 10 9 4 3 5 5 8 9 10 9 9 8 6 5 6 14 22 23 30 28 31 19 12 27 35 45 43 46 49 50 43 64 63 71 60
8 8 8 8 7 6 5 6 12 18 14 10 8 3 4 4 8 12 10 12 11 9 9 7 6 10 21 24 25 31 40 20 20 34 35 40 40 42 41 47 52 67 67 70 68
10 10 10 10 10 9 8 6 5 10 17 14 10 6 3 4 6 11 12 12 11 11 10 10 9 7 23 21 19 28 33 25 16 37 50 68 50 50 40 44 44 56 63 72 72
11 10 9 8 8 9 9 8 6 5 9 17 12 10 6 4 6 10 12 11 20 12 14 8 9 14 29 30 19 34 42 43 41 22 44 59 52 44 43 44 48 57 64 74 72
9 9 9 7 7 6 7 8 8 6 5 10 16 11 9 4 5 10 11 12 20 19 11 8 8 26 16 31 36 39 29 32 59 41 47 58 47 44 48 45 57 55 62 69 74
9 9 8 6 6 6 5 5 6 7 6 6 14 14 11 6 4 9 11 12 20 13 8 8 19 27 29 30 24 29 28 34 47 64 50 66 57 50 49 53 57 54 56 58 62
11 7 5 4 4 5 6 5 6 7 7 7 10 14 11 8 4 6 12 11 24 23 17 14 26 22 26 30 20 23 31 43 38 67 66 58 58 50 49 57 55 54 55 58 64
13 10 6 4 4 4 6 6 6 7 7 8 8 11 12 6 5 6 11 16 22 25 22 23 22 21 23 28 29 34 29 31 49 60 65 57 59 69 57 56 55 56 56 57 55
14 11 8 4 5 5 4 7 7 6 6 6 7 8 11 9 6 7 10 20 22 24 24 21 17 19 28 40 36 32 27 29 45 61 55 58 56 69 55 62 59 56 58 59 55
12 11 8 4 5 5 5 6 8 10 27 28 12 12 10 11 8 7 9 23 28 24 26 22 21 20 25 27 33 34 33 35 42 50 40 52 37 56 65 56 60 62 59 56 55
9 9 7 4 5 5 5 5 8 12 62 23 39 29 25 17 18 10 10 28 27 26 26 22 22 18 20 21 30 25 37 45 48 42 34 56 44 30 57 72 61 54 54 58 57
6 6 6 5 5 5 5 5 10 53 49 40 72 82 53 32 19 22 10 21 26 28 29 17 18 21 19 20 26 26 41 47 49 42 51 40 47 35 50 61 46 55 55 52 54
4 4 4 5 6 6 5 6 74 58 22 66 71 68 52 52 34 27 27 30 26 28 25 22 24 22 22 22 29 37 43 45 49 52 54 36 44 36 42 50 49 40 38 42 49
3 3 3 3 3 4 5 53 68 48 74 75 39 40 57 52 43 24 28 29 26 22 18 20 21 24 16 22 24 35 36 29 41 40 34 53 48 43 44 35 34 44 49 45 36
3 2 2 2 3 4 7 99 86 80 90 64 59 55 56 60 44 28 26 26 26 22 19 19 17 19 24 21 24 33 35 26 32 45 31 40 42 45 45 41 37 28 30 35 35
3 2 7 11 13 35 76 94 92 99 97 92 82 76 75 69 54 38 24 27 28 29 26 24 22 21 25 25 21 26 24 37 38 68 42 27 32 37 36 37 40 37 27 32 35
4 5 11 23 36 89 100 97 100 100 100 91 91 92 86 87 77 62 27 23 29 33 31 27 24 23 23 26 22 33 32 38 39 32 33 31 35 34 34 36 41 24 26 32 34
5 11 15 64 83 79 96 84 74 81 98 94 94 86 90 99 85 72 68 46 33 36 32 27 29 31 21 20 21 27 26 35 49 45 40 34 38 28 35 31 27 28 28 34 37
7 8 13 58 84 93 96 100 94 93 84 85 91 98 99 97 96 81 90 71 41 40 37 29 29 28 35 23 26 24 26 33 35 43 45 62 43 27 27 26 26 27 29 34 40
7 9 15 17 65 85 83 100 100 92 92 96 97 99 92 90 96 98 100 70 64 50 34 35 29 27 27 25 25 31 29 27 33 37 41 36 31 31 26 27 28 26 29 34 36
7 10 11 31 34 89 100 100 99 82 94 98 99 96 100 99 94 96 92 85 80 62 45 38 37 30 25 25 29 26 29 31 32 33 31 28 30 27 30 26 26 25 27 29 32
8 12 15 54 56 94 89 98 100 83 72 100 100 98 96 99 98 90 86 96 99 72 58 53 44 34 32 27 32 31 29 32 29 30 26 25 30 28 33 28 28 28 24 29 29
14 19 22 34 94 85 100 100 99 100 78 99 100 99 100 98 89 84 92 94 94 91 92 89 79 56 42 32 24 30 34 34 32 28 27 29 28 34 30 31 32 31 27 25 27
Wind_Speed
23 25 25 24 24 24 23 23 22 21 21 20 20 20 19 18 19 20 17 20 24 22 22 23 24 25 23 24 24 21 16 20 20 19 15 18 17 15 14 11 16 17 14 10 12
24 24 25 26 26 25 24 24 23 22 21 20 19 18 17 17 18 19 17 19 21 24 23 23 22 24 23 22 25 19 19 19 18 17 17 16 17 16 17 18 17 17 14 16 15
23 24 25 26 26 27 26 25 24 22 21 20 19 18 16 15 16 17 16 18 19 22 25 24 23 22 20 20 23 20 18 16 19 17 14 15 18 17 19 16 19 16 19 20 21
20 22 23 24 26 26 27 27 26 24 22 21 19 17 16 15 9 13 17 18 18 20 24 24 24 24 21 21 21 17 20 14 16 20 17 18 18 17 16 16 16 16 17 23 25
19 20 21 21 22 24 25 25 26 26 25 23 21 19 18 18 17 11 12 17 18 18 20 21 23 21 20 20 19 19 18 20 21 21 20 21 19 21 21 20 16 18 16 24 24
20 19 20 21 21 21 21 23 25 26 26 25 23 21 20 18 18 19 15 16 17 18 19 20 22 21 18 18 19 19 17 21 22 24 25 25 24 24 20 19 16 20 21 25 23
21 20 21 21 21 21 21 21 21 23 24 25 24 22 22 16 19 21 19 16 19 20 19 20 20 22 16 21 28 19 20 21 25 24 28 23 22 22 22 20 20 20 22 22 21
22 21 20 21 20 20 22 22 20 19 22 24 24 23 22 22 21 21 22 21 18 20 21 21 21 23 16 20 23 19 18 22 26 30 29 28 22 25 24 23 21 21 22 22 19
21 21 19 20 19 18 19 21 20 19 19 21 22 23 21 23 24 23 22 21 19 21 21 22 23 20 23 20 19 24 22 28 20 29 29 30 15 26 27 24 23 22 21 20 17
21 20 21 20 17 16 17 17 19 18 19 18 21 18 22 23 25 28 25 27 23 21 21 25 22 21 21 25 28 26 23 27 21 28 29 27 17 24 27 25 26 22 21 20 19
20 19 19 18 16 14 14 15 15 18 20 20 13 24 14 26 25 31 30 29 29 24 22 26 22 29 26 26 21 21 23 24 21 20 27 25 20 21 25 25 28 26 24 21 21
25 20 17 17 14 13 11 12 14 16 18 18 18 21 19 15 24 32 34 34 34 30 24 24 29 23 22 21 22 20 24 22 19 20 26 24 23 21 24 27 29 27 27 24 24
26 23 19 18 15 13 12 10 13 14 15 16 19 16 24 24 24 30 37 32 32 29 32 26 19 23 24 23 21 21 24 24 19 18 23 19 25 22 27 28 28 29 28 26 23
24 23 19 17 16 15 14 12 12 10 5 5 8 16 24 30 30 27 35 34 25 31 25 24 25 27 25 25 24 23 21 21 20 21 22 26 19 27 29 32 31 29 25 28 31
22 21 20 18 16 15 15 12 10 7 3 3 1 10 13 28 15 30 30 33 26 23 29 25 27 28 29 30 27 22 19 21 20 20 20 18 24 21 30 31 36 33 30 30 28
20 20 19 18 18 16 13 10 5 1 3 2 3 1 2 12 21 7 32 30 26 25 26 25 23 23 25 26 26 19 17 17 17 20 17 21 25 29 25 32 35 34 32 30 31
21 20 19 18 18 17 14 7 2 5 4 4 2 2 6 5 17 17 25 34 34 30 28 27 21 21 23 23 25 25 27 13 12 14 9 25 20 29 19 22 26 25 27 28 31
23 22 19 16 15 14 13 4 6 2 3 7 10 6 4 3 10 24 22 33 37 30 24 28 25 27 26 32 28 37 35 17 17 15 16 11 13 19 27 13 19 22 24 29 32
23 21 18 15 12 10 9 5 1 2 5 9 8 4 3 3 7 19 27 31 35 33 24 30 27 20 25 25 27 37 40 33 7 4 17 20 19 8 17 25 25 23 18 30 28
23 20 15 13 8 2 5 3 3 6 7 6 4 4 3 5 3 9 22 24 32 36 27 13 19 17 25 24 28 36 36 30 24 9 11 12 20 15 19 27 27 28 24 23 30
24 18 17 12 5 2 2 3 5 7 9 4 3 6 4 6 8 6 9 18 23 30 30 20 14 14 28 35 35 28 38 34 29 20 13 9 9 18 18 7 22 22 30 28 25
22 17 16 10 7 5 2 2 1 4 6 7 9 9 10 8 8 4 4 7 16 28 34 33 17 13 35 27 29 33 36 40 30 26 18 18 7 9 16 16 14 19 16 28 31
19 17 16 10 4 5 4 6 8 6 4 3 4 10 8 11 6 5 5 6 15 14 23 34 28 22 11 23 24 37 37 39 35 25 26 13 9 11 16 9 4 13 18 24 29
17 12 12 11 5 5 4 6 7 5 6 5 6 6 11 10 11 8 12 4 8 17 25 28 33 36 23 28 29 28 35 34 38 28 26 33 21 16 21 18 11 10 18 23 28
15 11 12 8 7 7 5 7 8 7 3 6 6 7 7 5 9 11 16 9 6 8 16 25 31 29 37 21 17 29 33 36 38 41 34 26 30 24 19 16 12 6 14 25 27
13 12 12 8 8 7 7 7 8 10 10 7 11 12 7 8 8 13 14 13 4 3 14 13 18 26 31 32 17 24 27 35 39 36 36 30 27 24 20 25 18 13 9 21 25
15 13 12 9 8 7 7 8 9 11 5 6 14 15 11 12 14 16 17 16 17 14 7 3 4 10 25 29 32 28 24 29 34 35 34 34 26 24 27 28 24 21 15 15 14
Wind_Direction
276 275 274 271 267 267 266 265 263 261 258 256 254 252 252 251 249 243 235 230 230 224 220 219 217 215 214 219 220 215 212 219 219 213 207 206 193 196 204 218 217 229 212 204 184
284 280 278 276 274 272 269 268 267 264 260 258 255 253 248 247 247 243 227 230 229 222 216 213 213 210 209 213 216 205 215 220 218 211 206 210 201 208 201 198 215 225 233 207 204
291 287 281 278 276 274 272 268 264 263 263 258 255 253 251 246 248 246 231 229 226 221 213 211 207 205 205 209 211 208 212 215 215 207 199 204 193 200 201 208 223 220 223 214 181
299 295 290 287 282 276 273 271 268 263 260 260 256 253 248 242 237 242 228 225 220 216 213 210 204 204 203 207 210 203 206 201 214 214 194 190 189 194 192 191 210 209 220 190 177
304 300 298 296 292 283 276 272 270 265 259 256 254 249 243 238 231 228 223 217 216 211 211 211 207 200 203 200 207 200 201 209 207 206 191 186 191 193 195 196 204 208 212 193 183
307 304 300 298 296 292 287 276 268 265 261 255 250 245 241 234 230 228 220 211 209 205 205 206 203 203 203 201 197 205 200 202 200 203 202 196 198 192 194 206 208 209 211 208 217
301 301 301 298 294 294 290 284 275 267 261 255 250 245 239 223 223 221 216 213 206 206 203 204 203 202 204 201 203 209 199 199 205 200 196 193 199 204 211 209 219 215 216 217 221
304 306 304 299 296 291 288 287 283 273 262 256 251 246 239 224 219 214 212 212 209 208 206 202 200 196 179 198 199 197 196 191 201 205 202 192 199 212 209 213 214 213 214 216 223
307 307 308 306 303 295 288 285 284 279 269 255 249 245 243 229 218 210 208 208 209 207 206 205 197 195 198 185 185 196 200 202 198 197 205 195 198 218 214 216 207 210 210 213 216
310 311 313 314 311 304 294 285 280 279 271 257 244 238 232 226 214 208 203 203 204 204 202 202 195 198 196 192 198 199 207 204 202 200 196 196 212 218 218 222 203 200 196 195 194
307 312 316 319 324 319 304 295 288 279 269 253 238 226 218 218 205 205 204 201 202 208 195 200 197 201 201 203 205 212 203 201 204 203 196 204 215 223 220 210 197 195 193 198 198
309 310 317 321 330 334 324 305 295 279 270 263 244 227 220 214 208 202 202 198 201 197 192 200 208 209 209 209 208 203 203 205 197 210 195 207 212 215 219 208 204 202 200 208 210
313 314 316 318 325 336 339 327 302 295 286 264 255 233 215 217 210 207 204 197 203 198 200 206 212 207 203 200 198 207 207 202 202 197 201 211 217 214 217 214 209 210 214 215 215
315 314 313 313 317 328 337 334 322 337 293 275 237 226 219 218 223 211 209 202 201 207 206 214 218 204 204 206 199 204 202 207 203 191 205 207 221 222 216 220 222 222 220 214 219
318 316 314 312 314 320 324 328 332 347 272 317 127 222 219 207 216 218 205 200 207 200 200 209 208 211 206 205 201 214 209 201 202 210 210 207 231 222 212 216 222 223 227 228 230
321 316 312 309 307 310 313 313 326 285 237 106 99 21 306 217 200 202 209 206 206 213 217 216 222 213 216 206 203 197 190 191 205 212 221 220 214 229 213 216 225 224 230 231 232
324 317 310 304 300 300 300 287 252 224 304 351 273 290 314 246 213 209 196 194 196 196 208 209 216 206 194 193 197 194 177 171 200 211 223 217 216 226 218 227 226 228 231 232 231
332 325 318 307 290 278 275 249 229 267 315 307 321 280 294 254 230 208 203 206 206 208 206 202 212 204 196 198 192 193 194 194 204 206 208 184 230 226 222 201 210 218 224 229 232
341 335 324 315 297 271 230 224 280 321 328 319 339 292 273 324 201 207 214 216 212 207 213 207 216 209 210 197 198 196 206 204 222 247 214 201 227 221 212 217 216 216 224 227 227
353 348 342 336 324 253 183 195 239 253 315 331 317 354 316 333 250 218 210 225 216 212 207 214 219 211 201 196 210 206 203 206 212 193 208 215 224 220 219 225 220 222 227 225 218
1 1 358 6 36 52 153 237 283 284 298 317 298 314 307 324 326 230 221 221 213 212 212 214 216 195 190 202 199 198 202 209 211 217 217 210 224 218 216 208 212 228 231 220 217
6 13 10 25 38 56 50 320 292 295 310 291 277 278 284 310 307 257 234 227 220 208 215 211 217 213 209 210 208 211 207 203 202 204 221 226 211 191 199 213 223 209 217 216 218
8 12 17 30 33 39 345 349 315 324 321 308 270 248 266 282 306 280 295 215 222 208 217 212 219 218 211 209 214 213 211 214 215 210 211 199 196 180 161 160 150 216 219 206 200
1 6 14 17 12 352 333 349 358 309 278 292 303 258 278 269 261 276 303 219 218 223 211 201 216 219 219 213 213 215 215 214 214 215 213 218 215 207 210 229 242 214 215 202 194
356 355 359 3 356 9 350 331 342 313 294 322 300 333 10 303 275 269 275 272 176 224 206 203 216 218 223 228 223 217 215 212 214 220 219 220 222 221 214 197 191 220 213 206 201
348 354 347 342 342 350 342 328 339 314 284 292 318 316 315 310 274 276 285 280 242 85 175 187 221 223 227 225 229 220 219 216 219 219 224 225 227 225 217 212 212 226 244 207 206
345 341 339 335 335 338 313 324 319 327 307 298 308 302 302 276 274 276 278 279 279 271 330 116 215 220 226 221 226 235 219 220 223 221 220 220 222 222 219 215 219 221 226 209 207